Time,TemperatureF,DewpointF,PressureIn,WindDirection,WindDirectionDegrees,WindSpeedMPH,WindSpeedGustMPH,Humidity,HourlyPrecipIn,Conditions,Clouds,dailyrainin,SoftwareType,DateUTC
2013-05-09 00:00:00,69.9,62.7,29.96,North,0,0.0,0.0,78,0.00,,OVC023,0.00,VWS V14.01,2013-05-09 05:00:00,
2013-05-09 00:10:00,69.9,63.1,29.96,North,0,0.0,0.0,79,0.00,,OVC023,0.00,VWS V14.01,2013-05-09 05:10:00,
2013-05-09 00:20:00,69.9,63.1,29.95,North,0,0.0,0.0,79,0.00,,OVC023,0.00,VWS V14.01,2013-05-09 05:20:00,
2013-05-09 00:30:00,69.9,63.1,29.95,West,270,0.0,2.0,79,0.00,,OVC023,0.00,VWS V14.01,2013-05-09 05:30:00,
2013-05-09 00:40:00,69.9,63.1,29.95,West,270,0.0,2.0,79,0.00,,OVC023,0.00,VWS V14.01,2013-05-09 05:40:00,
2013-05-09 00:50:00,70.1,63.7,29.96,West,270,0.0,0.0,80,0.00,,OVC023,0.00,VWS V14.01,2013-05-09 05:50:00,
2013-05-09 01:00:00,70.3,63.8,29.95,West,270,0.0,1.0,80,0.00,,OVC023,0.00,VWS V14.01,2013-05-09 06:00:00,
2013-05-09 01:10:00,70.3,63.8,29.95,West,270,0.0,1.0,80,0.00,,OVC023,0.00,VWS V14.01,2013-05-09 06:10:00,
2013-05-09 01:20:00,70.3,63.8,29.95,West,270,0.0,1.0,80,0.00,,OVC023,0.00,VWS V14.01,2013-05-09 06:20:00,
2013-05-09 01:30:00,70.4,63.9,29.95,SW,225,0.0,2.0,80,0.00,,OVC023,0.00,VWS V14.01,2013-05-09 06:30:00,
2013-05-09 01:40:00,70.4,63.9,29.95,SW,225,0.0,5.0,80,0.00,,OVC023,0.00,VWS V14.01,2013-05-09 06:40:00,
2013-05-09 01:50:00,70.6,64.1,29.93,SSW,202,0.0,2.0,80,0.00,,OVC023,0.00,VWS V14.01,2013-05-09 06:50:00,
2013-05-09 02:00:00,70.6,64.1,29.93,WSW,248,0.0,2.0,80,0.00,,OVC023,0.00,VWS V14.01,2013-05-09 07:00:00,
2013-05-09 02:10:00,70.6,63.8,29.93,WNW,292,0.0,3.0,79,0.00,,OVC023,0.00,VWS V14.01,2013-05-09 07:10:00,
2013-05-09 02:20:00,70.8,64.0,29.92,WNW,292,0.0,2.0,79,0.00,,OVC023,0.00,VWS V14.01,2013-05-09 07:20:00,
2013-05-09 02:30:00,70.6,63.8,29.92,SW,225,0.0,3.0,79,0.00,,OVC023,0.00,VWS V14.01,2013-05-09 07:30:00,
2013-05-09 02:40:00,70.6,63.8,29.92,SW,225,0.0,1.0,79,0.00,,OVC023,0.00,VWS V14.01,2013-05-09 07:40:00,
2013-05-09 02:50:00,70.6,64.1,29.92,SW,225,0.0,2.0,80,0.00,,OVC023,0.00,VWS V14.01,2013-05-09 07:50:00,
2013-05-09 03:00:00,70.6,64.1,29.91,SW,225,0.0,0.0,80,0.00,,OVC023,0.00,VWS V14.01,2013-05-09 08:00:00,
2013-05-09 03:10:00,70.5,64.4,29.91,West,270,0.0,1.0,81,0.00,,OVC023,0.00,VWS V14.01,2013-05-09 08:10:00,
2013-05-09 03:20:00,70.4,64.7,29.92,West,270,0.0,1.0,82,0.00,,OVC023,0.00,VWS V14.01,2013-05-09 08:20:00,
2013-05-09 03:30:00,70.4,64.7,29.91,West,270,0.0,2.0,82,0.00,,OVC023,0.00,VWS V14.01,2013-05-09 08:30:00,
2013-05-09 03:40:00,70.4,64.7,29.91,West,270,0.0,4.0,82,0.00,,OVC023,0.00,VWS V14.01,2013-05-09 08:40:00,
2013-05-09 03:50:00,70.4,64.7,29.91,NNW,338,0.0,2.0,82,0.00,,OVC023,0.00,VWS V14.01,2013-05-09 08:50:00,
2013-05-09 04:00:00,70.4,65.0,29.92,NNW,338,0.0,1.0,83,0.00,,OVC023,0.00,VWS V14.01,2013-05-09 09:00:00,
2013-05-09 04:10:00,70.3,64.9,29.92,NNW,338,0.0,0.0,83,0.00,,OVC023,0.00,VWS V14.01,2013-05-09 09:10:00,
2013-05-09 04:20:00,70.3,64.9,29.91,NNW,338,0.0,1.0,83,0.00,,OVC023,0.00,VWS V14.01,2013-05-09 09:20:00,
2013-05-09 04:30:00,70.3,64.9,29.91,NNW,338,0.0,0.0,83,0.00,,OVC023,0.00,VWS V14.01,2013-05-09 09:30:00,
2013-05-09 04:40:00,70.1,64.7,29.91,NNW,338,0.0,0.0,83,0.00,,OVC023,0.00,VWS V14.01,2013-05-09 09:40:00,
2013-05-09 04:50:00,70.1,65.1,29.91,NNW,338,0.0,0.0,84,0.00,,OVC023,0.00,VWS V14.01,2013-05-09 09:50:00,
2013-05-09 05:00:00,69.9,64.8,29.92,NNW,338,0.0,1.0,84,0.00,,OVC023,0.00,VWS V14.01,2013-05-09 10:00:00,
2013-05-09 05:10:00,69.9,64.8,29.92,NNW,338,0.0,0.0,84,0.00,,OVC023,0.00,VWS V14.01,2013-05-09 10:10:00,
2013-05-09 05:20:00,69.9,65.2,29.92,NNW,338,0.0,0.0,85,0.00,,OVC023,0.00,VWS V14.01,2013-05-09 10:20:00,
2013-05-09 05:30:00,69.9,65.2,29.91,NNW,338,0.0,0.0,85,0.00,,OVC023,0.00,VWS V14.01,2013-05-09 10:30:00,
2013-05-09 05:40:00,69.9,65.2,29.91,NNW,338,0.0,1.0,85,0.00,,OVC023,0.00,VWS V14.01,2013-05-09 10:40:00,
2013-05-09 05:50:00,69.9,65.5,29.91,NNW,338,0.0,0.0,86,0.00,,OVC023,0.00,VWS V14.01,2013-05-09 10:50:00,
2013-05-09 06:00:00,69.9,65.5,29.91,NNW,338,0.0,0.0,86,0.00,,OVC023,0.00,VWS V14.01,2013-05-09 11:00:00,
2013-05-09 06:05:00,69.8,65.4,29.92,NNW,342,0.0,0.0,86,0.00,,OVC037,0.00,VWS V14.01,2013-05-09 11:05:00,
2013-05-09 06:10:00,69.8,65.4,29.92,NNW,342,0.0,0.0,86,0.00,,OVC037,0.00,VWS V14.01,2013-05-09 11:10:00,
2013-05-09 06:15:00,69.8,65.4,29.92,NNW,342,0.0,0.0,86,0.00,,OVC035,0.00,VWS V14.01,2013-05-09 11:15:00,
2013-05-09 06:20:00,69.8,65.4,29.92,NNW,342,0.0,0.0,86,0.00,,OVC035,0.00,VWS V14.01,2013-05-09 11:20:00,
2013-05-09 06:25:00,69.6,65.2,29.92,NNW,342,0.0,0.0,86,0.00,,OVC035,0.00,VWS V14.01,2013-05-09 11:25:00,
2013-05-09 06:30:00,69.6,65.2,29.92,NNW,342,0.0,0.0,86,0.00,,OVC035,0.00,VWS V14.01,2013-05-09 11:30:00,
2013-05-09 06:35:00,69.4,65.4,29.92,NNW,342,0.0,0.0,87,0.00,,OVC035,0.00,VWS V14.01,2013-05-09 11:35:00,
2013-05-09 06:40:00,69.4,65.4,29.92,NNW,342,0.0,0.0,87,0.00,,OVC035,0.00,VWS V14.01,2013-05-09 11:40:00,
2013-05-09 06:45:00,69.4,65.4,29.92,NNW,342,0.0,0.0,87,0.00,,OVC035,0.00,VWS V14.01,2013-05-09 11:45:00,
2013-05-09 06:50:00,69.3,65.3,29.92,NNW,342,0.0,0.0,87,0.00,,OVC035,0.00,VWS V14.01,2013-05-09 11:50:00,
2013-05-09 06:55:00,69.3,65.3,29.92,NNW,342,0.0,0.0,87,0.00,,BKN041,0.00,VWS V14.01,2013-05-09 11:55:00,
2013-05-09 07:00:00,69.3,65.6,29.92,NNW,342,0.0,0.0,88,0.00,,BKN041,0.00,VWS V14.01,2013-05-09 12:00:00,
2013-05-09 07:05:00,69.4,65.7,29.92,NNW,342,0.0,0.0,88,0.00,,OVC041,0.00,VWS V14.01,2013-05-09 12:05:00,
2013-05-09 07:10:00,69.4,65.7,29.92,NNW,342,0.0,0.0,88,0.00,,OVC041,0.00,VWS V14.01,2013-05-09 12:10:00,
2013-05-09 07:15:00,69.4,65.7,29.92,NNW,342,0.0,0.0,88,0.00,,OVC041,0.00,VWS V14.01,2013-05-09 12:15:00,
2013-05-09 07:20:00,69.4,65.7,29.92,NNW,342,0.0,0.0,88,0.00,,OVC041,0.00,VWS V14.01,2013-05-09 12:20:00,
2013-05-09 07:25:00,69.6,65.9,29.92,NNW,342,0.0,0.0,88,0.00,,OVC041,0.00,VWS V14.01,2013-05-09 12:25:00,
2013-05-09 07:30:00,69.6,65.9,29.92,NNW,342,0.0,0.0,88,0.00,,OVC041,0.00,VWS V14.01,2013-05-09 12:30:00,
2013-05-09 07:35:00,69.8,66.1,29.92,NNW,342,0.0,0.0,88,0.00,,OVC041,0.00,VWS V14.01,2013-05-09 12:35:00,
2013-05-09 07:40:00,69.9,66.2,29.92,NNW,342,0.0,0.0,88,0.00,,OVC041,0.00,VWS V14.01,2013-05-09 12:40:00,
2013-05-09 07:45:00,69.9,66.2,29.92,NNW,342,0.0,0.0,88,0.00,,OVC041,0.00,VWS V14.01,2013-05-09 12:45:00,
2013-05-09 07:50:00,70.1,66.4,29.93,NNW,342,0.0,0.0,88,0.00,,OVC041,0.00,VWS V14.01,2013-05-09 12:50:00,
2013-05-09 07:55:00,70.3,66.6,29.93,NNW,342,0.0,0.0,88,0.00,,OVC041,0.00,VWS V14.01,2013-05-09 12:55:00,
2013-05-09 08:00:00,70.4,66.7,29.93,NNW,342,0.0,2.0,88,0.00,,OVC041,0.00,VWS V14.01,2013-05-09 13:00:00,
2013-05-09 08:05:00,70.6,66.9,29.93,SW,227,0.0,2.0,88,0.00,,OVC009,0.00,VWS V14.01,2013-05-09 13:05:00,
2013-05-09 08:10:00,70.6,66.9,29.93,SW,227,0.0,0.0,88,0.00,,OVC009,0.00,VWS V14.01,2013-05-09 13:10:00,
2013-05-09 08:15:00,70.8,67.1,29.93,SW,227,0.0,1.0,88,0.00,,OVC009,0.00,VWS V14.01,2013-05-09 13:15:00,
2013-05-09 08:20:00,71.0,67.3,29.93,SW,227,0.0,0.0,88,0.00,,OVC009,0.00,VWS V14.01,2013-05-09 13:20:00,
2013-05-09 08:25:00,71.1,67.4,29.93,SW,227,0.0,1.0,88,0.00,,OVC009,0.00,VWS V14.01,2013-05-09 13:25:00,
2013-05-09 08:30:00,71.3,67.2,29.93,SW,227,0.0,0.0,87,0.00,,OVC009,0.00,VWS V14.01,2013-05-09 13:30:00,
2013-05-09 08:35:00,71.5,67.4,29.93,NW,311,0.0,4.0,87,0.00,,OVC009,0.00,VWS V14.01,2013-05-09 13:35:00,
2013-05-09 08:40:00,71.8,67.7,29.93,NW,311,0.0,0.0,87,0.00,,OVC009,0.00,VWS V14.01,2013-05-09 13:40:00,
2013-05-09 08:45:00,72.2,68.1,29.93,NW,311,0.0,0.0,87,0.00,,OVC009,0.00,VWS V14.01,2013-05-09 13:45:00,
2013-05-09 08:50:00,72.5,68.1,29.93,NW,319,0.0,1.0,86,0.00,,OVC009,0.00,VWS V14.01,2013-05-09 13:50:00,
2013-05-09 08:55:00,72.7,67.6,29.93,NW,319,0.0,1.0,84,0.00,,OVC009,0.00,VWS V14.01,2013-05-09 13:55:00,
2013-05-09 09:00:00,73.0,67.9,29.93,NW,319,0.0,0.0,84,0.00,,OVC009,0.00,VWS V14.01,2013-05-09 14:00:00,
2013-05-09 09:05:00,73.4,68.3,29.93,NW,319,0.0,0.0,84,0.00,,OVC041,0.00,VWS V14.01,2013-05-09 14:05:00,
2013-05-09 09:10:00,73.7,68.2,29.93,NW,319,0.0,0.0,83,0.00,,OVC041,0.00,VWS V14.01,2013-05-09 14:10:00,
2013-05-09 09:15:00,73.9,68.1,29.93,WSW,244,0.0,1.0,82,0.00,,OVC041,0.00,VWS V14.01,2013-05-09 14:15:00,
2013-05-09 09:20:00,74.1,67.9,29.93,WSW,244,0.0,1.0,81,0.00,,OVC041,0.00,VWS V14.01,2013-05-09 14:20:00,
2013-05-09 09:25:00,74.4,68.2,29.93,WSW,245,0.0,1.0,81,0.00,,OVC041,0.00,VWS V14.01,2013-05-09 14:25:00,
2013-05-09 09:30:00,74.6,68.0,29.93,WSW,245,0.0,0.0,80,0.00,,OVC041,0.00,VWS V14.01,2013-05-09 14:30:00,
2013-05-09 09:35:00,74.8,67.9,29.93,WSW,254,0.0,3.0,79,0.00,,OVC041,0.00,VWS V14.01,2013-05-09 14:35:00,
2013-05-09 09:40:00,75.1,68.2,29.93,WSW,245,0.0,1.0,79,0.00,,OVC041,0.00,VWS V14.01,2013-05-09 14:40:00,
2013-05-09 09:45:00,75.1,67.8,29.93,SW,236,0.0,2.0,78,0.00,,OVC041,0.00,VWS V14.01,2013-05-09 14:45:00,
2013-05-09 09:50:00,75.1,67.4,29.93,WSW,258,0.0,1.0,77,0.00,,OVC041,0.00,VWS V14.01,2013-05-09 14:50:00,
2013-05-09 09:55:00,75.1,67.8,29.93,WSW,254,0.0,1.0,78,0.00,,OVC041,0.00,VWS V14.01,2013-05-09 14:55:00,
2013-05-09 10:00:00,75.1,67.4,29.93,WSW,254,0.0,1.0,77,0.00,,OVC041,0.00,VWS V14.01,2013-05-09 15:00:00,
2013-05-09 10:05:00,75.3,68.0,29.93,WSW,255,0.0,2.0,78,0.00,,OVC035,0.00,VWS V14.01,2013-05-09 15:05:00,
2013-05-09 10:10:00,75.3,67.6,29.93,South,188,0.0,5.0,77,0.00,,OVC035,0.00,VWS V14.01,2013-05-09 15:10:00,
2013-05-09 10:15:00,75.3,67.2,29.93,South,188,0.0,5.0,76,0.00,,OVC035,0.00,VWS V14.01,2013-05-09 15:15:00,
2013-05-09 10:20:00,75.3,67.2,29.92,SSW,192,0.0,1.0,76,0.00,,OVC035,0.00,VWS V14.01,2013-05-09 15:20:00,
2013-05-09 10:25:00,75.5,67.4,29.92,South,190,0.0,2.0,76,0.00,,OVC035,0.00,VWS V14.01,2013-05-09 15:25:00,
2013-05-09 10:30:00,75.6,67.5,29.92,South,190,0.0,0.0,76,0.00,,OVC035,0.00,VWS V14.01,2013-05-09 15:30:00,
2013-05-09 10:35:00,75.8,67.7,29.92,SW,214,0.0,1.0,76,0.00,,OVC035,0.00,VWS V14.01,2013-05-09 15:35:00,
2013-05-09 10:40:00,75.6,67.5,29.92,South,186,1.0,3.0,76,0.00,,OVC035,0.00,VWS V14.01,2013-05-09 15:40:00,
2013-05-09 10:45:00,75.6,67.1,29.92,NNW,346,0.0,3.0,75,0.00,,OVC035,0.00,VWS V14.01,2013-05-09 15:45:00,
2013-05-09 10:50:00,75.8,67.3,29.92,NNW,346,0.0,0.0,75,0.00,,OVC035,0.00,VWS V14.01,2013-05-09 15:50:00,
2013-05-09 10:55:00,76.0,67.1,29.92,South,175,2.0,4.0,74,0.00,,OVC035,0.00,VWS V14.01,2013-05-09 15:55:00,
2013-05-09 11:00:00,75.8,66.9,29.92,South,175,0.0,5.0,74,0.00,,OVC035,0.00,VWS V14.01,2013-05-09 16:00:00,
2013-05-09 11:05:00,76.0,67.9,29.92,South,175,0.0,5.0,76,0.00,,OVC026,0.00,VWS V14.01,2013-05-09 16:05:00,
2013-05-09 11:10:00,76.0,67.9,29.92,South,173,0.0,2.0,76,0.00,,OVC026,0.00,VWS V14.01,2013-05-09 16:10:00,
2013-05-09 11:15:00,76.2,67.7,29.92,South,173,0.0,2.0,75,0.00,,OVC026,0.00,VWS V14.01,2013-05-09 16:15:00,
2013-05-09 11:20:00,76.2,67.3,29.92,NW,313,0.0,1.0,74,0.00,,OVC026,0.00,VWS V14.01,2013-05-09 16:20:00,
2013-05-09 11:25:00,76.0,67.5,29.92,NW,313,0.0,1.0,75,0.00,,OVC026,0.00,VWS V14.01,2013-05-09 16:25:00,
2013-05-09 11:30:00,76.0,67.5,29.92,NW,312,0.0,0.0,75,0.00,,OVC026,0.00,VWS V14.01,2013-05-09 16:30:00,
2013-05-09 11:35:00,75.8,66.9,29.92,SW,220,0.0,3.0,74,0.00,,OVC026,0.00,VWS V14.01,2013-05-09 16:35:00,
2013-05-09 11:40:00,75.6,66.7,29.92,West,265,0.0,1.0,74,0.00,,OVC026,0.00,VWS V14.01,2013-05-09 16:40:00,
2013-05-09 11:45:00,75.5,67.0,29.92,SSW,213,0.0,2.0,75,0.00,,OVC026,0.00,VWS V14.01,2013-05-09 16:45:00,
2013-05-09 11:50:00,75.5,67.0,29.92,SSW,209,1.0,1.0,75,0.00,,OVC026,0.00,VWS V14.01,2013-05-09 16:50:00,
2013-05-09 11:55:00,75.8,67.3,29.92,SSW,209,0.0,2.0,75,0.00,,OVC026,0.00,VWS V14.01,2013-05-09 16:55:00,
2013-05-09 12:00:00,75.8,66.9,29.92,SSW,209,0.0,2.0,74,0.00,,OVC026,0.00,VWS V14.01,2013-05-09 17:00:00,
2013-05-09 12:05:00,75.8,67.3,29.92,SSW,209,0.0,2.0,75,0.00,,OVC039,0.00,VWS V14.01,2013-05-09 17:05:00,
2013-05-09 12:10:00,75.8,67.3,29.92,SSW,213,0.0,1.0,75,0.00,,OVC039,0.00,VWS V14.01,2013-05-09 17:10:00,
2013-05-09 12:15:00,75.8,67.3,29.92,SSW,213,0.0,1.0,75,0.00,,OVC039,0.00,VWS V14.01,2013-05-09 17:15:00,
2013-05-09 12:20:00,75.8,67.3,29.92,SSW,207,0.0,2.0,75,0.00,,OVC039,0.00,VWS V14.01,2013-05-09 17:20:00,
2013-05-09 12:25:00,75.8,67.7,29.92,SSW,207,0.0,2.0,76,0.00,,OVC039,0.00,VWS V14.01,2013-05-09 17:25:00,
2013-05-09 12:30:00,75.6,67.5,29.92,North,355,0.0,0.0,76,0.00,,OVC039,0.00,VWS V14.01,2013-05-09 17:30:00,
2013-05-09 12:35:00,75.6,67.9,29.93,North,355,0.0,0.0,77,0.00,,OVC039,0.00,VWS V14.01,2013-05-09 17:35:00,
2013-05-09 12:40:00,75.6,67.5,29.93,North,355,0.0,1.0,76,0.00,,OVC039,0.00,VWS V14.01,2013-05-09 17:40:00,
2013-05-09 12:45:00,75.6,67.9,29.93,North,355,0.0,1.0,77,0.00,,OVC039,0.00,VWS V14.01,2013-05-09 17:45:00,
2013-05-09 12:50:00,75.8,68.1,29.92,NNW,346,0.0,4.0,77,0.00,,OVC039,0.00,VWS V14.01,2013-05-09 17:50:00,
2013-05-09 12:55:00,75.8,68.1,29.92,NNW,346,0.0,4.0,77,0.00,,OVC039,0.00,VWS V14.01,2013-05-09 17:55:00,
2013-05-09 13:00:00,75.8,68.1,29.92,NNW,346,0.0,0.0,77,0.00,,OVC039,0.00,VWS V14.01,2013-05-09 18:00:00,
2013-05-09 13:05:00,75.6,67.9,29.92,NNW,346,0.0,2.0,77,0.00,,OVC030,0.00,VWS V14.01,2013-05-09 18:05:00,
2013-05-09 13:10:00,75.8,68.1,29.92,NNW,346,0.0,0.0,77,0.00,,OVC030,0.00,VWS V14.01,2013-05-09 18:10:00,
2013-05-09 13:15:00,75.8,68.1,29.92,NNW,346,0.0,3.0,77,0.00,,OVC030,0.00,VWS V14.01,2013-05-09 18:15:00,
2013-05-09 13:20:00,75.8,67.7,29.92,NNW,346,0.0,1.0,76,0.00,,OVC030,0.00,VWS V14.01,2013-05-09 18:20:00,
2013-05-09 13:25:00,76.0,67.9,29.92,NNW,346,0.0,1.0,76,0.00,,OVC030,0.00,VWS V14.01,2013-05-09 18:25:00,
2013-05-09 13:30:00,76.0,68.3,29.92,NNW,346,0.0,0.0,77,0.00,,OVC030,0.00,VWS V14.01,2013-05-09 18:30:00,
2013-05-09 13:35:00,76.0,67.9,29.91,NNW,346,0.0,1.0,76,0.00,,OVC030,0.00,VWS V14.01,2013-05-09 18:35:00,
2013-05-09 13:40:00,76.0,67.9,29.91,NNW,346,0.0,1.0,76,0.00,,OVC030,0.00,VWS V14.01,2013-05-09 18:40:00,
2013-05-09 13:45:00,76.2,68.1,29.91,NNW,346,0.0,1.0,76,0.00,,OVC030,0.00,VWS V14.01,2013-05-09 18:45:00,
2013-05-09 13:50:00,76.3,68.6,29.90,NNW,346,1.0,1.0,77,0.00,,OVC030,0.00,VWS V14.01,2013-05-09 18:50:00,
2013-05-09 13:55:00,76.3,68.2,29.90,NNW,346,0.0,2.0,76,0.00,,OVC030,0.00,VWS V14.01,2013-05-09 18:55:00,
2013-05-09 14:00:00,76.5,68.4,29.90,NNW,346,0.0,0.0,76,0.00,,OVC030,0.00,VWS V14.01,2013-05-09 19:00:00,
2013-05-09 14:05:00,76.5,68.0,29.90,NNW,346,0.0,2.0,75,0.00,,,0.00,VWS V14.01,2013-05-09 19:05:00,
2013-05-09 14:09:00,76.5,68.0,29.90,NNW,346,0.0,1.0,75,0.00,,,0.00,VWS V14.01,2013-05-09 19:09:00,
2013-05-09 14:10:00,76.3,68.2,29.90,NNW,346,0.0,2.0,76,0.00,,FEW045,0.00,VWS V14.01,2013-05-09 19:10:00,
2013-05-09 14:14:00,76.7,68.2,29.90,NNW,346,0.0,1.0,75,0.00,,,0.00,VWS V14.01,2013-05-09 19:14:00,
2013-05-09 14:19:00,76.7,68.6,29.89,NNW,346,0.0,0.0,76,0.00,,,0.00,VWS V14.01,2013-05-09 19:19:00,
2013-05-09 14:20:00,76.5,68.4,29.90,NNW,346,0.0,2.0,76,0.00,,FEW045,0.00,VWS V14.01,2013-05-09 19:20:00,
2013-05-09 14:24:00,77.1,68.6,29.89,NNW,346,0.0,1.0,75,0.00,,,0.00,VWS V14.01,2013-05-09 19:24:00,
2013-05-09 14:29:00,77.2,68.7,29.89,NNW,346,0.0,0.0,75,0.00,,,0.00,VWS V14.01,2013-05-09 19:29:00,
2013-05-09 14:30:00,76.7,68.2,29.89,NNW,346,0.0,1.0,75,0.00,,FEW045,0.00,VWS V14.01,2013-05-09 19:30:00,
2013-05-09 14:34:00,77.4,68.5,29.89,NNW,346,0.0,0.0,74,0.00,,,0.00,VWS V14.01,2013-05-09 19:34:00,
2013-05-09 14:39:00,77.4,68.1,29.89,West,261,0.0,3.0,73,0.00,,,0.00,VWS V14.01,2013-05-09 19:39:00,
2013-05-09 14:40:00,77.1,68.6,29.89,NNW,346,0.0,1.0,75,0.00,,FEW045,0.00,VWS V14.01,2013-05-09 19:40:00,
2013-05-09 14:44:00,77.4,68.5,29.89,West,261,0.0,3.0,74,0.00,,,0.00,VWS V14.01,2013-05-09 19:44:00,
2013-05-09 14:49:00,77.4,68.1,29.89,West,261,0.0,0.0,73,0.00,,,0.00,VWS V14.01,2013-05-09 19:49:00,
2013-05-09 14:50:00,77.4,68.1,29.89,WSW,257,3.0,4.0,73,0.00,,FEW045,0.00,VWS V14.01,2013-05-09 19:50:00,
2013-05-09 14:54:00,77.4,68.5,29.89,West,261,0.0,0.0,74,0.00,,,0.00,VWS V14.01,2013-05-09 19:54:00,
2013-05-09 14:59:00,77.4,68.5,29.89,West,261,0.0,0.0,74,0.00,,,0.00,VWS V14.01,2013-05-09 19:59:00,
2013-05-09 15:00:00,77.4,68.5,29.89,West,261,0.0,3.0,74,0.00,,FEW045,0.00,VWS V14.01,2013-05-09 20:00:00,
2013-05-09 15:04:00,77.4,68.5,29.88,West,261,0.0,0.0,74,0.00,,,0.00,VWS V14.01,2013-05-09 20:04:00,
2013-05-09 15:09:00,77.4,68.9,29.88,West,261,0.0,0.0,75,0.00,,,0.00,VWS V14.01,2013-05-09 20:09:00,
2013-05-09 15:10:00,77.4,68.5,29.89,West,261,0.0,0.0,74,0.00,,FEW045,0.00,VWS V14.01,2013-05-09 20:10:00,
2013-05-09 15:14:00,77.4,68.5,29.88,West,261,0.0,0.0,74,0.00,,,0.00,VWS V14.01,2013-05-09 20:14:00,
2013-05-09 15:19:00,77.4,68.5,29.88,West,261,0.0,0.0,74,0.00,,,0.00,VWS V14.01,2013-05-09 20:19:00,
2013-05-09 15:20:00,77.4,68.9,29.88,West,261,0.0,0.0,75,0.00,,FEW045,0.00,VWS V14.01,2013-05-09 20:20:00,
2013-05-09 15:24:00,77.2,68.3,29.88,West,261,0.0,0.0,74,0.00,,,0.00,VWS V14.01,2013-05-09 20:24:00,
2013-05-09 15:29:00,77.2,68.7,29.88,West,261,0.0,0.0,75,0.00,,,0.00,VWS V14.01,2013-05-09 20:29:00,
2013-05-09 15:30:00,77.4,68.5,29.88,West,261,0.0,0.0,74,0.00,,FEW045,0.00,VWS V14.01,2013-05-09 20:30:00,
2013-05-09 15:35:00,77.2,68.7,29.87,West,261,0.0,0.0,75,0.00,,,0.00,VWS V14.01,2013-05-09 20:35:00,
2013-05-09 15:40:00,77.1,68.6,29.87,West,261,0.0,0.0,75,0.00,,,0.00,VWS V14.01,2013-05-09 20:40:00,
2013-05-09 15:44:00,77.1,68.2,29.87,West,269,0.0,0.0,74,0.00,,,0.00,VWS V14.01,2013-05-09 20:44:00,
2013-05-09 15:49:00,77.1,68.2,29.87,West,269,0.0,0.0,74,0.00,,,0.00,VWS V14.01,2013-05-09 20:49:00,
2013-05-09 15:50:00,77.1,68.6,29.87,West,261,0.0,0.0,75,0.00,,FEW045,0.00,VWS V14.01,2013-05-09 20:50:00,
2013-05-09 15:54:00,76.9,68.0,29.87,West,269,0.0,1.0,74,0.00,,,0.00,VWS V14.01,2013-05-09 20:54:00,
2013-05-09 15:59:00,76.9,68.4,29.87,West,269,0.0,0.0,75,0.00,,,0.00,VWS V14.01,2013-05-09 20:59:00,
2013-05-09 16:00:00,77.1,68.6,29.87,West,269,0.0,0.0,75,0.00,,FEW045,0.00,VWS V14.01,2013-05-09 21:00:00,
2013-05-09 16:04:00,76.7,68.6,29.86,West,269,0.0,0.0,76,0.00,,,0.00,VWS V14.01,2013-05-09 21:04:00,
2013-05-09 16:09:00,76.7,68.9,29.86,West,269,0.0,0.0,77,0.00,,,0.00,VWS V14.01,2013-05-09 21:09:00,
2013-05-09 16:10:00,76.9,68.4,29.87,West,269,0.0,1.0,75,0.00,,FEW045,0.00,VWS V14.01,2013-05-09 21:10:00,
2013-05-09 16:14:00,76.5,68.8,29.86,West,269,0.0,0.0,77,0.00,,,0.00,VWS V14.01,2013-05-09 21:14:00,
2013-05-09 16:19:00,76.3,68.9,29.86,West,269,0.0,0.0,78,0.00,,,0.00,VWS V14.01,2013-05-09 21:19:00,
2013-05-09 16:20:00,76.7,68.6,29.86,West,269,0.0,0.0,76,0.00,,FEW045,0.00,VWS V14.01,2013-05-09 21:20:00,
2013-05-09 16:24:00,76.3,69.3,29.86,West,269,0.0,0.0,79,0.00,,,0.00,VWS V14.01,2013-05-09 21:24:00,
2013-05-09 16:29:00,76.2,68.8,29.86,West,269,0.0,0.0,78,0.00,,,0.00,VWS V14.01,2013-05-09 21:29:00,
2013-05-09 16:30:00,76.5,68.8,29.86,West,269,0.0,0.0,77,0.00,,FEW045,0.00,VWS V14.01,2013-05-09 21:30:00,
2013-05-09 16:34:00,76.2,68.8,29.85,West,269,0.0,0.0,78,0.00,,,0.00,VWS V14.01,2013-05-09 21:34:00,
2013-05-09 16:39:00,76.2,68.8,29.85,West,269,0.0,0.0,78,0.00,,,0.00,VWS V14.01,2013-05-09 21:39:00,
2013-05-09 16:40:00,76.2,68.8,29.86,West,269,0.0,0.0,78,0.00,,FEW045,0.00,VWS V14.01,2013-05-09 21:40:00,
2013-05-09 16:44:00,76.2,68.8,29.85,West,269,0.0,0.0,78,0.00,,,0.00,VWS V14.01,2013-05-09 21:44:00,
2013-05-09 16:49:00,76.3,69.3,29.84,West,269,0.0,0.0,79,0.00,,,0.00,VWS V14.01,2013-05-09 21:49:00,
2013-05-09 16:50:00,76.2,68.8,29.85,West,269,0.0,0.0,78,0.00,,FEW045,0.00,VWS V14.01,2013-05-09 21:50:00,
2013-05-09 16:54:00,76.3,69.3,29.84,West,269,0.0,0.0,79,0.00,,,0.00,VWS V14.01,2013-05-09 21:54:00,
2013-05-09 16:59:00,76.3,69.3,29.84,West,269,0.0,0.0,79,0.00,,,0.00,VWS V14.01,2013-05-09 21:59:00,
2013-05-09 17:00:00,76.3,69.3,29.84,West,269,0.0,0.0,79,0.00,,FEW045,0.00,VWS V14.01,2013-05-09 22:00:00,
2013-05-09 17:04:00,76.5,69.5,29.84,West,269,0.0,0.0,79,0.00,,,0.00,VWS V14.01,2013-05-09 22:04:00,
2013-05-09 17:09:00,76.5,69.9,29.84,West,269,0.0,0.0,80,0.00,,,0.00,VWS V14.01,2013-05-09 22:09:00,
2013-05-09 17:10:00,76.3,69.3,29.84,West,269,0.0,0.0,79,0.00,,FEW045,0.00,VWS V14.01,2013-05-09 22:10:00,
2013-05-09 17:14:00,76.5,69.5,29.84,West,269,0.0,0.0,79,0.00,,,0.00,VWS V14.01,2013-05-09 22:14:00,
2013-05-09 17:19:00,76.7,69.7,29.84,West,269,0.0,0.0,79,0.00,,,0.00,VWS V14.01,2013-05-09 22:19:00,
2013-05-09 17:20:00,76.5,69.5,29.84,West,269,0.0,0.0,79,0.00,,FEW045,0.00,VWS V14.01,2013-05-09 22:20:00,
2013-05-09 17:24:00,76.7,69.7,29.84,West,269,0.0,0.0,79,0.00,,,0.00,VWS V14.01,2013-05-09 22:24:00,
2013-05-09 17:29:00,76.9,70.3,29.84,West,269,0.0,0.0,80,0.00,,,0.00,VWS V14.01,2013-05-09 22:29:00,
2013-05-09 17:30:00,76.7,69.7,29.84,West,269,0.0,0.0,79,0.00,,FEW045,0.00,VWS V14.01,2013-05-09 22:30:00,
2013-05-09 17:34:00,77.1,70.8,29.83,West,269,0.0,0.0,81,0.00,,,0.00,VWS V14.01,2013-05-09 22:34:00,
2013-05-09 17:39:00,77.4,70.8,29.83,West,269,0.0,0.0,80,0.00,,,0.00,VWS V14.01,2013-05-09 22:39:00,
2013-05-09 17:40:00,76.9,70.3,29.84,West,269,0.0,0.0,80,0.00,,FEW045,0.00,VWS V14.01,2013-05-09 22:40:00,
2013-05-09 17:44:00,77.6,70.2,29.83,West,269,0.0,0.0,78,0.00,,,0.00,VWS V14.01,2013-05-09 22:44:00,
2013-05-09 17:49:00,77.8,70.4,29.83,West,269,0.0,0.0,78,0.00,,,0.00,VWS V14.01,2013-05-09 22:49:00,
2013-05-09 17:50:00,77.2,70.9,29.83,West,269,0.0,0.0,81,0.00,,FEW045,0.00,VWS V14.01,2013-05-09 22:50:00,
2013-05-09 17:54:00,78.0,70.2,29.83,West,269,0.0,0.0,77,0.00,,,0.00,VWS V14.01,2013-05-09 22:54:00,
2013-05-09 17:59:00,78.3,70.5,29.83,West,269,0.0,0.0,77,0.00,,,0.00,VWS V14.01,2013-05-09 22:59:00,
2013-05-09 18:00:00,77.8,70.4,29.83,West,269,0.0,0.0,78,0.00,,FEW045,0.00,VWS V14.01,2013-05-09 23:00:00,
2013-05-09 18:04:00,78.5,70.3,29.83,West,269,0.0,0.0,76,0.00,,,0.00,VWS V14.01,2013-05-09 23:04:00,
2013-05-09 18:09:00,78.5,70.3,29.83,West,269,0.0,0.0,76,0.00,,,0.00,VWS V14.01,2013-05-09 23:09:00,
2013-05-09 18:10:00,78.1,70.3,29.83,West,269,0.0,0.0,77,0.00,,FEW045,0.00,VWS V14.01,2013-05-09 23:10:00,
2013-05-09 18:14:00,78.5,69.9,29.83,West,269,0.0,0.0,75,0.00,,,0.00,VWS V14.01,2013-05-09 23:14:00,
2013-05-09 18:19:00,78.5,70.7,29.84,West,269,0.0,0.0,77,0.00,,,0.00,VWS V14.01,2013-05-09 23:19:00,
2013-05-09 18:20:00,78.5,70.7,29.83,West,269,0.0,0.0,77,0.00,,FEW045,0.00,VWS V14.01,2013-05-09 23:20:00,
2013-05-09 18:24:00,78.1,70.3,29.84,West,269,0.0,0.0,77,0.00,,,0.00,VWS V14.01,2013-05-09 23:24:00,
2013-05-09 18:29:00,78.0,71.0,29.84,West,269,0.0,0.0,79,0.00,,,0.00,VWS V14.01,2013-05-09 23:29:00,
2013-05-09 18:30:00,78.5,70.3,29.84,West,269,0.0,0.0,76,0.00,,FEW045,0.00,VWS V14.01,2013-05-09 23:30:00,
2013-05-09 18:34:00,77.6,70.6,29.84,West,269,0.0,0.0,79,0.00,,,0.00,VWS V14.01,2013-05-09 23:34:00,
2013-05-09 18:39:00,77.4,70.8,29.84,West,269,0.0,0.0,80,0.00,,,0.00,VWS V14.01,2013-05-09 23:39:00,
2013-05-09 18:40:00,78.0,71.0,29.84,West,269,0.0,0.0,79,0.00,,FEW045,0.00,VWS V14.01,2013-05-09 23:40:00,
2013-05-09 18:44:00,77.4,70.4,29.84,West,269,0.0,0.0,79,0.00,,,0.00,VWS V14.01,2013-05-09 23:44:00,
2013-05-09 18:49:00,77.4,70.4,29.83,West,269,0.0,0.0,79,0.00,,,0.00,VWS V14.01,2013-05-09 23:49:00,
2013-05-09 18:50:00,77.6,70.6,29.84,West,269,0.0,0.0,79,0.00,,FEW045,0.00,VWS V14.01,2013-05-09 23:50:00,
2013-05-09 18:54:00,77.4,70.0,29.83,West,269,0.0,0.0,78,0.00,,,0.00,VWS V14.01,2013-05-09 23:54:00,
2013-05-09 18:59:00,77.6,70.2,29.83,West,269,0.0,0.0,78,0.00,,,0.00,VWS V14.01,2013-05-09 23:59:00,
2013-05-09 19:00:00,77.4,70.4,29.83,West,269,0.0,0.0,79,0.00,,FEW045,0.00,VWS V14.01,2013-05-10 00:00:00,
2013-05-09 19:04:00,77.4,69.6,29.83,West,269,0.0,0.0,77,0.00,,,0.00,VWS V14.01,2013-05-10 00:04:00,
2013-05-09 19:09:00,77.4,69.6,29.83,West,269,0.0,0.0,77,0.00,,,0.00,VWS V14.01,2013-05-10 00:09:00,
2013-05-09 19:10:00,77.4,70.0,29.83,West,269,0.0,0.0,78,0.00,,FEW045,0.00,VWS V14.01,2013-05-10 00:10:00,
2013-05-09 19:14:00,77.2,69.4,29.83,West,269,0.0,0.0,77,0.00,,,0.00,VWS V14.01,2013-05-10 00:14:00,
2013-05-09 19:19:00,77.2,69.8,29.83,West,269,0.0,0.0,78,0.00,,,0.00,VWS V14.01,2013-05-10 00:19:00,
2013-05-09 19:20:00,77.4,69.6,29.83,West,269,0.0,0.0,77,0.00,,FEW045,0.00,VWS V14.01,2013-05-10 00:20:00,
2013-05-09 19:24:00,77.1,69.7,29.83,West,269,0.0,0.0,78,0.00,,,0.00,VWS V14.01,2013-05-10 00:24:00,
2013-05-09 19:29:00,77.1,69.7,29.83,West,269,0.0,0.0,78,0.00,,,0.00,VWS V14.01,2013-05-10 00:29:00,
2013-05-09 19:30:00,77.2,69.8,29.83,West,269,0.0,0.0,78,0.00,,FEW045,0.00,VWS V14.01,2013-05-10 00:30:00,
2013-05-09 19:34:00,76.9,69.5,29.84,West,269,0.0,0.0,78,0.00,,,0.00,VWS V14.01,2013-05-10 00:34:00,
2013-05-09 19:39:00,76.9,69.5,29.84,West,269,0.0,0.0,78,0.00,,,0.00,VWS V14.01,2013-05-10 00:39:00,
2013-05-09 19:40:00,77.1,69.7,29.83,West,269,0.0,0.0,78,0.00,,FEW045,0.00,VWS V14.01,2013-05-10 00:40:00,
2013-05-09 19:44:00,76.7,69.7,29.84,North,5,0.0,2.0,79,0.00,,,0.00,VWS V14.01,2013-05-10 00:44:00,
2013-05-09 19:49:00,75.8,66.9,29.85,ESE,110,1.0,1.0,74,0.00,,,0.00,VWS V14.01,2013-05-10 00:49:00,
2013-05-09 19:50:00,76.9,69.5,29.84,West,269,0.0,0.0,78,0.00,,FEW045,0.00,VWS V14.01,2013-05-10 00:50:00,
2013-05-09 19:54:00,74.9,66.4,29.85,ESE,111,0.0,1.0,75,0.00,,,0.00,VWS V14.01,2013-05-10 00:54:00,
2013-05-09 19:59:00,74.2,65.8,29.85,WNW,289,0.0,3.0,75,0.00,,,0.00,VWS V14.01,2013-05-10 00:59:00,
2013-05-09 20:00:00,76.3,67.8,29.85,NE,52,0.0,3.0,75,0.00,,FEW045,0.00,VWS V14.01,2013-05-10 01:00:00,
2013-05-09 20:04:00,73.5,65.5,29.84,WNW,292,0.0,3.0,76,0.00,,,0.00,VWS V14.01,2013-05-10 01:04:00,
2013-05-09 20:09:00,73.0,65.4,29.84,SE,134,2.0,2.0,77,0.00,,,0.00,VWS V14.01,2013-05-10 01:09:00,
2013-05-09 20:10:00,74.6,66.2,29.85,ESE,111,0.0,1.0,75,0.00,,FEW045,0.00,VWS V14.01,2013-05-10 01:10:00,
2013-05-09 20:14:00,72.5,64.9,29.84,NW,310,0.0,3.0,77,0.00,,,0.00,VWS V14.01,2013-05-10 01:14:00,
2013-05-09 20:19:00,72.2,65.0,29.84,NW,310,0.0,0.0,78,0.00,,,0.00,VWS V14.01,2013-05-10 01:19:00,
2013-05-09 20:20:00,73.4,65.8,29.84,NW,304,1.0,3.0,77,0.00,,FEW045,0.00,VWS V14.01,2013-05-10 01:20:00,
2013-05-09 20:24:00,72.0,65.1,29.84,NW,310,0.0,0.0,79,0.00,,,0.00,VWS V14.01,2013-05-10 01:24:00,
2013-05-09 20:29:00,71.6,64.8,29.84,SE,127,0.0,0.0,79,0.00,,,0.00,VWS V14.01,2013-05-10 01:29:00,
2013-05-09 20:30:00,72.3,65.1,29.84,NW,310,0.0,3.0,78,0.00,,FEW045,0.00,VWS V14.01,2013-05-10 01:30:00,
2013-05-09 20:34:00,71.3,64.8,29.86,SE,127,0.0,0.0,80,0.00,,,0.00,VWS V14.01,2013-05-10 01:34:00,
2013-05-09 20:39:00,71.1,64.6,29.86,SE,129,0.0,0.0,80,0.00,,,0.00,VWS V14.01,2013-05-10 01:39:00,
2013-05-09 20:40:00,71.8,64.9,29.84,SE,127,0.0,4.0,79,0.00,,FEW045,0.00,VWS V14.01,2013-05-10 01:40:00,
2013-05-09 20:44:00,71.0,64.5,29.86,SE,129,0.0,0.0,80,0.00,,,0.00,VWS V14.01,2013-05-10 01:44:00,
2013-05-09 20:49:00,70.6,64.5,29.86,SE,129,0.0,0.0,81,0.00,,,0.00,VWS V14.01,2013-05-10 01:49:00,
2013-05-09 20:50:00,71.3,64.8,29.86,SE,127,0.0,0.0,80,0.00,,FEW045,0.00,VWS V14.01,2013-05-10 01:50:00,
2013-05-09 20:54:00,70.4,64.3,29.86,SE,129,0.0,0.0,81,0.00,,,0.00,VWS V14.01,2013-05-10 01:54:00,
2013-05-09 20:59:00,70.3,64.6,29.86,SE,129,0.0,2.0,82,0.00,,,0.00,VWS V14.01,2013-05-10 01:59:00,
2013-05-09 21:00:00,70.8,64.7,29.86,SE,129,0.0,0.0,81,0.00,,FEW045,0.00,VWS V14.01,2013-05-10 02:00:00,
2013-05-09 21:04:00,70.3,64.6,29.87,SE,126,0.0,2.0,82,0.00,,,0.00,VWS V14.01,2013-05-10 02:04:00,
2013-05-09 21:09:00,70.1,64.4,29.87,SE,126,0.0,0.0,82,0.00,,,0.00,VWS V14.01,2013-05-10 02:09:00,
2013-05-09 21:10:00,70.4,64.3,29.86,SE,129,0.0,0.0,81,0.00,,FEW045,0.00,VWS V14.01,2013-05-10 02:10:00,
2013-05-09 21:14:00,70.1,64.4,29.87,SE,126,0.0,1.0,82,0.00,,,0.00,VWS V14.01,2013-05-10 02:14:00,
2013-05-09 21:19:00,70.1,64.7,29.86,SE,126,0.0,1.0,83,0.00,,,0.00,VWS V14.01,2013-05-10 02:19:00,
2013-05-09 21:20:00,70.3,64.6,29.87,SE,126,0.0,2.0,82,0.00,,FEW045,0.00,VWS V14.01,2013-05-10 02:20:00,
2013-05-09 21:24:00,70.1,64.7,29.86,SE,126,0.0,1.0,83,0.00,,,0.00,VWS V14.01,2013-05-10 02:24:00,
2013-05-09 21:29:00,70.1,64.7,29.86,SE,126,0.0,0.0,83,0.00,,,0.00,VWS V14.01,2013-05-10 02:29:00,
2013-05-09 21:30:00,70.1,64.7,29.86,SE,126,1.0,1.0,83,0.00,,FEW045,0.00,VWS V14.01,2013-05-10 02:30:00,
2013-05-09 21:34:00,70.1,65.1,29.87,SE,126,0.0,7.0,84,0.00,,,0.00,VWS V14.01,2013-05-10 02:34:00,
2013-05-09 21:39:00,69.9,64.8,29.87,SE,126,0.0,0.0,84,0.00,,,0.00,VWS V14.01,2013-05-10 02:39:00,
2013-05-09 21:40:00,70.1,64.7,29.86,SE,126,0.0,2.0,83,0.00,,FEW045,0.00,VWS V14.01,2013-05-10 02:40:00,
2013-05-09 21:44:00,69.9,64.8,29.87,SE,132,0.0,6.0,84,0.00,,,0.00,VWS V14.01,2013-05-10 02:44:00,
2013-05-09 21:49:00,69.8,64.8,29.89,SE,142,0.0,1.0,84,0.00,,,0.00,VWS V14.01,2013-05-10 02:49:00,
2013-05-09 21:50:00,70.1,65.1,29.87,SE,126,0.0,7.0,84,0.00,,FEW045,0.00,VWS V14.01,2013-05-10 02:50:00,
2013-05-09 21:54:00,69.8,64.8,29.89,East,101,0.0,4.0,84,0.00,,,0.00,VWS V14.01,2013-05-10 02:54:00,
2013-05-09 21:59:00,69.8,64.8,29.89,East,88,0.0,0.0,84,0.00,,,0.00,VWS V14.01,2013-05-10 02:59:00,
2013-05-09 22:00:00,69.9,64.8,29.89,SE,132,0.0,6.0,84,0.00,,FEW045,0.00,VWS V14.01,2013-05-10 03:00:00,
2013-05-09 22:04:00,69.6,64.6,29.90,ENE,69,0.0,3.0,84,0.00,,,0.00,VWS V14.01,2013-05-10 03:04:00,
2013-05-09 22:09:00,69.6,64.6,29.90,ESE,111,0.0,1.0,84,0.00,,,0.00,VWS V14.01,2013-05-10 03:09:00,
2013-05-09 22:10:00,69.8,64.8,29.89,East,88,0.0,4.0,84,0.00,,FEW045,0.00,VWS V14.01,2013-05-10 03:10:00,
2013-05-09 22:14:00,69.6,64.6,29.90,ESE,112,0.0,2.0,84,0.00,,,0.00,VWS V14.01,2013-05-10 03:14:00,
2013-05-09 22:19:00,69.6,64.6,29.91,ESE,112,0.0,1.0,84,0.00,,,0.00,VWS V14.01,2013-05-10 03:19:00,
2013-05-09 22:20:00,69.6,64.6,29.90,East,98,0.0,6.0,84,0.00,,FEW045,0.00,VWS V14.01,2013-05-10 03:20:00,
2013-05-09 22:24:00,69.4,64.0,29.91,ESE,123,0.0,5.0,83,0.00,,,0.00,VWS V14.01,2013-05-10 03:24:00,
2013-05-09 22:29:00,69.4,64.0,29.91,ESE,107,0.0,2.0,83,0.00,,,0.00,VWS V14.01,2013-05-10 03:29:00,
2013-05-09 22:30:00,69.6,64.6,29.91,ESE,112,0.0,2.0,84,0.00,,FEW045,0.00,VWS V14.01,2013-05-10 03:30:00,
2013-05-09 22:34:00,69.4,64.0,29.90,ESE,107,0.0,2.0,83,0.00,,,0.00,VWS V14.01,2013-05-10 03:34:00,
2013-05-09 22:39:00,69.3,63.9,29.90,ESE,108,0.0,0.0,83,0.00,,,0.00,VWS V14.01,2013-05-10 03:39:00,
2013-05-09 22:40:00,69.4,64.0,29.91,ESE,108,2.0,5.0,83,0.00,,FEW045,0.00,VWS V14.01,2013-05-10 03:40:00,
2013-05-09 22:44:00,69.3,64.3,29.90,ESE,107,0.0,0.0,84,0.00,,,0.00,VWS V14.01,2013-05-10 03:44:00,
2013-05-09 22:49:00,69.1,64.1,29.90,ESE,107,0.0,0.0,84,0.00,,,0.00,VWS V14.01,2013-05-10 03:49:00,
2013-05-09 22:50:00,69.3,63.9,29.90,ESE,108,0.0,2.0,83,0.00,,FEW045,0.00,VWS V14.01,2013-05-10 03:50:00,
2013-05-09 22:54:00,68.9,63.9,29.90,ESE,108,0.0,0.0,84,0.00,,,0.00,VWS V14.01,2013-05-10 03:54:00,
2013-05-09 22:59:00,68.9,64.2,29.90,ESE,107,0.0,0.0,85,0.00,,,0.00,VWS V14.01,2013-05-10 03:59:00,
2013-05-09 23:00:00,69.1,64.1,29.90,ESE,107,0.0,0.0,84,0.00,,FEW045,0.00,VWS V14.01,2013-05-10 04:00:00,
2013-05-09 23:01:00,68.9,64.2,29.90,ESE,108,0.0,1.0,85,0.00,,,0.00,VWS V14.01,2013-05-10 04:01:00,
2013-05-09 23:06:00,68.9,64.6,29.93,ESE,107,1.0,1.0,86,0.00,,,0.00,VWS V14.01,2013-05-10 04:06:00,
2013-05-09 23:10:00,68.9,64.2,29.90,ESE,108,0.0,0.0,85,0.00,,FEW045,0.00,VWS V14.01,2013-05-10 04:10:00,
2013-05-09 23:11:00,68.9,64.6,29.93,ESE,107,0.0,1.0,86,0.00,,,0.00,VWS V14.01,2013-05-10 04:11:00,
2013-05-09 23:16:00,68.9,63.9,29.93,NW,306,3.0,6.0,84,0.00,,,0.00,VWS V14.01,2013-05-10 04:16:00,
2013-05-09 23:20:00,68.9,64.5,29.93,ESE,107,1.0,1.0,86,0.00,,FEW045,0.00,VWS V14.01,2013-05-10 04:20:00,
2013-05-09 23:21:00,68.1,60.3,29.98,WNW,296,1.0,7.0,76,0.00,,,0.00,VWS V14.01,2013-05-10 04:21:00,
2013-05-09 23:26:00,67.3,61.3,29.98,ESE,116,2.0,7.0,81,0.08,,,0.08,VWS V14.01,2013-05-10 04:26:00,
2013-05-09 23:30:00,68.8,62.7,29.98,NW,321,1.0,6.0,81,0.00,,FEW045,0.00,VWS V14.01,2013-05-10 04:30:00,
2013-05-09 23:31:00,65.6,60.6,29.98,ESE,109,0.0,4.0,84,0.17,,,0.17,VWS V14.01,2013-05-10 04:31:00,
2013-05-09 23:36:00,64.7,60.4,29.98,NNW,330,0.0,6.0,86,0.29,,,0.29,VWS V14.01,2013-05-10 04:36:00,
2013-05-09 23:40:00,66.6,60.9,29.98,South,182,4.0,7.0,82,0.13,,FEW045,0.13,VWS V14.01,2013-05-10 04:40:00,
2013-05-09 23:41:00,64.2,60.6,29.98,ESE,121,0.0,1.0,88,0.33,,,0.33,VWS V14.01,2013-05-10 04:41:00,
2013-05-09 23:46:00,63.7,60.4,29.98,SW,234,0.0,3.0,89,0.35,,,0.35,VWS V14.01,2013-05-10 04:46:00,
2013-05-09 23:50:00,64.5,60.5,29.98,NNW,330,1.0,6.0,87,0.30,,FEW045,0.30,VWS V14.01,2013-05-10 04:50:00,
2013-05-09 23:51:00,63.2,59.9,29.95,ESE,115,0.0,5.0,89,0.35,,,0.00,VWS V14.01,2013-05-10 04:51:00,
2013-05-09 23:56:00,62.9,59.9,29.95,SE,131,4.0,5.0,90,0.35,,,0.00,VWS V14.01,2013-05-10 04:56:00,